• In Netherlands
  • List of Countries
  • For 7 days
  • Water Temperature
  • Satellite Maps
  • Weather Map
  • Weather Widgets
  • user-avatar
    Login

    Hourly Weather Wavre

    Today, 28 April, Friday

    Time Temperature Precipitation Wind Pressure Humidity
    00:00 +2°C° 0 mm 2 mps 755 mmHg 81%
    01:00 +2°C° 0 mm 2 mps 755 mmHg 83%
    02:00 +2°C° 0 mm 2 mps 755 mmHg 86%
    03:00 +1°C° 0 mm 3 mps 755 mmHg 88%
    04:00 +1°C° 0 mm 3 mps 755 mmHg 88%
    05:00 +2°C° 0 mm 3 mps 755 mmHg 88%
    06:00 +3°C° 0 mm 3 mps 755 mmHg 87%
    07:00 +5°C° 0 mm 3 mps 755 mmHg 83%
    08:00 +6°C° 0 mm 4 mps 755 mmHg 79%
    09:00 +8°C° 0 mm 4 mps 755 mmHg 75%
    10:00 +8°C° 0.2 mm 4 mps 755 mmHg 73%
    11:00 +10°C° 0.2 mm 4 mps 755 mmHg 70%
    12:00 +10°C° 0.2 mm 4 mps 755 mmHg 68%
    13:00 +10°C° 0.1 mm 4 mps 755 mmHg 67%
    14:00 +10°C° 0.1 mm 5 mps 755 mmHg 65%
    15:00 +10°C° 0.1 mm 5 mps 755 mmHg 64%
    16:00 +10°C° 0 mm 4 mps 755 mmHg 68%
    17:00 +9°C° 0 mm 3 mps 755 mmHg 71%
    18:00 +8°C° 0 mm 3 mps 755 mmHg 75%
    19:00 +7°C° 0 mm 2 mps 756 mmHg 79%
    20:00 +5°C° 0 mm 2 mps 756 mmHg 83%
    21:00 +3°C° 0 mm 2 mps 757 mmHg 87%
    22:00 +3°C° 0 mm 1 mps 757 mmHg 88%
    23:00 +2°C° 0 mm 1 mps 757 mmHg 89%

    Tomorrow, 29 April, Saturday

    Time Temperature Precipitation Wind Pressure Humidity
    00:00 +1°C° 0 mm 1 mps 757 mmHg 91%
    01:00 +1°C° 0 mm 1 mps 757 mmHg 91%
    02:00 +1°C° 0 mm 1 mps 757 mmHg 91%
    03:00 +1°C° 0 mm 1 mps 757 mmHg 91%
    04:00 +3°C° 0 mm 1 mps 757 mmHg 87%
    05:00 +4°C° 0 mm 1 mps 757 mmHg 84%
    06:00 +6°C° 0 mm 1 mps 757 mmHg 81%
    07:00 +8°C° 0 mm 1 mps 758 mmHg 75%
    08:00 +9°C° 0 mm 1 mps 758 mmHg 68%
    09:00 +10°C° 0 mm 0 mps 758 mmHg 61%
    10:00 +11°C° 0 mm 0 mps 757 mmHg 60%
    11:00 +12°C° 0 mm 1 mps 757 mmHg 59%
    12:00 +12°C° 0 mm 1 mps 757 mmHg 58%
    13:00 +13°C° 0 mm 1 mps 757 mmHg 58%
    14:00 +13°C° 0 mm 1 mps 756 mmHg 58%
    15:00 +13°C° 0 mm 2 mps 756 mmHg 58%
    16:00 +12°C° 0 mm 2 mps 756 mmHg 64%
    17:00 +12°C° 0 mm 2 mps 756 mmHg 69%
    18:00 +10°C° 0 mm 2 mps 756 mmHg 75%
    19:00 +9°C° 0 mm 3 mps 756 mmHg 78%
    20:00 +7°C° 0 mm 3 mps 756 mmHg 81%
    21:00 +5°C° 0 mm 3 mps 756 mmHg 84%
    22:00 +4°C° 0 mm 3 mps 756 mmHg 85%
    23:00 +4°C° 0 mm 4 mps 755 mmHg 85%

    Day after tomorrow, 30 April, Sunday

    Time Temperature Precipitation Wind Pressure Humidity
    00:00 +3°C° 0 mm 4 mps 755 mmHg 85%
    01:00 +3°C° 0 mm 4 mps 755 mmHg 86%
    02:00 +3°C° 0 mm 4 mps 754 mmHg 87%
    03:00 +3°C° 0 mm 4 mps 754 mmHg 87%
    04:00 +3°C° 0 mm 5 mps 753 mmHg 85%
    05:00 +5°C° 0 mm 5 mps 753 mmHg 82%
    06:00 +5°C° 0 mm 6 mps 752 mmHg 79%
    07:00 +8°C° 0 mm 6 mps 752 mmHg 74%
    08:00 +10°C° 0 mm 7 mps 751 mmHg 69%
    09:00 +12°C° 0 mm 7 mps 751 mmHg 64%
    10:00 +13°C° 0 mm 8 mps 750 mmHg 61%
    11:00 +15°C° 0 mm 8 mps 750 mmHg 58%
    12:00 +17°C° 0 mm 9 mps 749 mmHg 55%
    13:00 +17°C° 0 mm 8 mps 749 mmHg 57%
    14:00 +17°C° 0 mm 8 mps 748 mmHg 59%
    15:00 +17°C° 0 mm 8 mps 748 mmHg 61%
    16:00 +16°C° 0.3 mm 7 mps 747 mmHg 67%
    17:00 +15°C° 0.3 mm 7 mps 747 mmHg 73%
    18:00 +14°C° 0.3 mm 6 mps 747 mmHg 79%
    19:00 +13°C° 1 mm 5 mps 747 mmHg 83%
    20:00 +12°C° 1 mm 5 mps 747 mmHg 88%
    21:00 +10°C° 1 mm 4 mps 747 mmHg 92%
    22:00 +10°C° 0.2 mm 4 mps 747 mmHg 93%
    23:00 +8°C° 0.2 mm 4 mps 747 mmHg 94%

    1 May, Monday

    Time Temperature Precipitation Wind Pressure Humidity
    00:00 +8°C° 0.2 mm 4 mps 747 mmHg 94%
    01:00 +8°C° 0.3 mm 5 mps 747 mmHg 94%
    02:00 +7°C° 0.3 mm 5 mps 747 mmHg 94%
    03:00 +7°C° 0.3 mm 5 mps 748 mmHg 93%
    04:00 +7°C° 0 mm 5 mps 748 mmHg 92%
    05:00 +6°C° 0 mm 5 mps 748 mmHg 91%
    06:00 +5°C° 0 mm 6 mps 748 mmHg 90%
    07:00 +5°C° 0 mm 6 mps 749 mmHg 88%
    08:00 +7°C° 0 mm 6 mps 749 mmHg 85%
    09:00 +6°C° 0 mm 7 mps 750 mmHg 82%
    10:00 +8°C° 0.2 mm 7 mps 750 mmHg 81%
    11:00 +8°C° 0.2 mm 7 mps 750 mmHg 81%
    12:00 +9°C° 0.2 mm 7 mps 751 mmHg 80%
    13:00 +9°C° 0.2 mm 7 mps 751 mmHg 78%
    14:00 +10°C° 0.2 mm 7 mps 752 mmHg 75%
    15:00 +10°C° 0.2 mm 6 mps 752 mmHg 73%
    16:00 +10°C° 0.2 mm 5 mps 752 mmHg 76%
    17:00 +10°C° 0.2 mm 4 mps 753 mmHg 78%
    18:00 +10°C° 0.2 mm 3 mps 753 mmHg 81%
    19:00 +9°C° 0 mm 3 mps 753 mmHg 84%
    20:00 +7°C° 0 mm 3 mps 754 mmHg 87%
    21:00 +5°C° 0 mm 3 mps 754 mmHg 90%
    22:00 +5°C° 0 mm 3 mps 754 mmHg 91%
    23:00 +4°C° 0 mm 3 mps 754 mmHg 92%

    2 May, Tuesday

    Time Temperature Precipitation Wind Pressure Humidity
    00:00 +4°C° 0 mm 3 mps 754 mmHg 92%
    01:00 +3°C° 0 mm 3 mps 754 mmHg 93%
    02:00 +3°C° 0 mm 3 mps 754 mmHg 93%
    03:00 +3°C° 0 mm 3 mps 754 mmHg 94%
    04:00 +3°C° 0 mm 3 mps 755 mmHg 92%
    05:00 +4°C° 0 mm 3 mps 755 mmHg 90%
    06:00 +5°C° 0 mm 3 mps 755 mmHg 88%
    07:00 +8°C° 0 mm 2 mps 755 mmHg 81%
    08:00 +10°C° 0 mm 2 mps 755 mmHg 74%
    09:00 +13°C° 0 mm 2 mps 755 mmHg 68%
    10:00 +13°C° 0.1 mm 2 mps 754 mmHg 64%
    11:00 +14°C° 0.1 mm 2 mps 754 mmHg 61%
    12:00 +15°C° 0.1 mm 2 mps 754 mmHg 58%
    13:00 +14°C° 0.3 mm 3 mps 754 mmHg 60%
    14:00 +16°C° 0.3 mm 3 mps 754 mmHg 63%
    15:00 +15°C° 0.3 mm 4 mps 754 mmHg 65%
    16:00 +14°C° 0.3 mm 4 mps 755 mmHg 71%
    17:00 +13°C° 0.3 mm 4 mps 755 mmHg 77%
    18:00 +12°C° 0.3 mm 4 mps 755 mmHg 83%
    19:00 +11°C° 0.1 mm 4 mps 756 mmHg 87%
    20:00 +10°C° 0.1 mm 3 mps 757 mmHg 90%
    21:00 +9°C° 0.1 mm 3 mps 757 mmHg 94%
    22:00 +8°C° 0 mm 3 mps 758 mmHg 95%
    23:00 +7°C° 0 mm 4 mps 758 mmHg 95%

    3 May, Wednesday

    Time Temperature Precipitation Wind Pressure Humidity
    00:00 +6°C° 0 mm 4 mps 758 mmHg 96%
    01:00 +5°C° 0 mm 4 mps 759 mmHg 95%
    02:00 +5°C° 0 mm 4 mps 759 mmHg 95%
    03:00 +4°C° 0 mm 3 mps 759 mmHg 95%
    04:00 +4°C° 0 mm 4 mps 760 mmHg 92%
    05:00 +5°C° 0 mm 4 mps 760 mmHg 90%
    06:00 +5°C° 0 mm 4 mps 760 mmHg 88%
    07:00 +7°C° 0 mm 4 mps 760 mmHg 81%
    08:00 +8°C° 0 mm 4 mps 760 mmHg 75%
    09:00 +10°C° 0 mm 5 mps 760 mmHg 68%
    10:00 +12°C° 0 mm 5 mps 760 mmHg 66%
    11:00 +12°C° 0 mm 5 mps 760 mmHg 63%
    12:00 +13°C° 0 mm 5 mps 760 mmHg 61%
    13:00 +13°C° 0.1 mm 5 mps 760 mmHg 63%
    14:00 +13°C° 0.1 mm 5 mps 760 mmHg 64%
    15:00 +13°C° 0.1 mm 5 mps 760 mmHg 66%
    16:00 +12°C° 0.1 mm 4 mps 760 mmHg 70%
    17:00 +11°C° 0.1 mm 4 mps 760 mmHg 74%
    18:00 +11°C° 0.1 mm 3 mps 760 mmHg 78%
    19:00 +9°C° 0 mm 3 mps 760 mmHg 81%
    20:00 +8°C° 0 mm 3 mps 760 mmHg 84%
    21:00 +7°C° 0 mm 3 mps 760 mmHg 87%
    22:00 +5°C° 0 mm 3 mps 760 mmHg 89%
    23:00 +5°C° 0 mm 3 mps 760 mmHg 90%
    Show more